Time,TemperatureF,DewpointF,PressureIn,WindDirection,WindDirectionDegrees,WindSpeedMPH,WindSpeedGustMPH,Humidity,HourlyPrecipIn,Conditions,Clouds,dailyrainin,SoftwareType,DateUTC
2013-09-05 00:02:00,62.2,34.9,29.19,SSW,202,0.0,4.0,36,0.00,,,0.00,meteohub,2013-09-05 07:02:00,
2013-09-05 00:07:00,62.2,34.9,29.19,East,85,0.0,6.0,36,0.00,,,0.00,meteohub,2013-09-05 07:07:00,
2013-09-05 00:12:00,62.2,34.9,29.19,West,275,0.0,6.0,36,0.00,,,0.00,meteohub,2013-09-05 07:12:00,
2013-09-05 00:17:00,62.1,34.9,29.19,SSE,165,0.0,6.0,36,0.00,,,0.00,meteohub,2013-09-05 07:17:00,
2013-09-05 00:22:00,61.9,35.2,29.19,South,169,0.0,4.0,37,0.00,,,0.00,meteohub,2013-09-05 07:22:00,
2013-09-05 00:27:00,61.9,35.2,29.19,ENE,60,0.0,6.0,37,0.00,,,0.00,meteohub,2013-09-05 07:27:00,
2013-09-05 00:32:00,61.9,36.0,29.19,East,87,4.0,6.0,38,0.00,,,0.00,meteohub,2013-09-05 07:32:00,
2013-09-05 00:37:00,61.7,35.8,29.19,SW,233,0.0,6.0,38,0.00,,,0.00,meteohub,2013-09-05 07:37:00,
2013-09-05 00:42:00,61.7,35.8,29.19,South,180,0.0,6.0,38,0.00,,,0.00,meteohub,2013-09-05 07:42:00,
2013-09-05 00:47:00,61.7,35.8,29.19,ENE,57,0.0,6.0,38,0.00,,,0.00,meteohub,2013-09-05 07:47:00,
2013-09-05 00:52:00,61.5,35.6,29.19,SW,219,0.0,6.0,38,0.00,,,0.00,meteohub,2013-09-05 07:52:00,
2013-09-05 00:57:00,61.3,35.6,29.19,SE,127,0.0,5.0,38,0.00,,,0.00,meteohub,2013-09-05 07:57:00,
2013-09-05 01:02:00,61.3,36.9,29.19,North,357,0.0,5.0,40,0.00,,,0.00,meteohub,2013-09-05 08:02:00,
2013-09-05 01:07:00,61.2,36.7,29.19,ENE,64,4.0,6.0,40,0.00,,,0.00,meteohub,2013-09-05 08:07:00,
2013-09-05 01:12:00,61.2,36.7,29.19,South,181,2.0,6.0,40,0.00,,,0.00,meteohub,2013-09-05 08:12:00,
2013-09-05 01:17:00,61.0,36.5,29.19,SE,124,0.0,6.0,40,0.00,,,0.00,meteohub,2013-09-05 08:17:00,
2013-09-05 01:22:00,61.0,37.0,29.19,NNE,14,6.0,6.0,41,0.00,,,0.00,meteohub,2013-09-05 08:22:00,
2013-09-05 01:27:00,61.0,37.0,29.19,SSE,162,0.0,6.0,41,0.00,,,0.00,meteohub,2013-09-05 08:27:00,
2013-09-05 01:32:00,61.0,37.0,29.19,SE,145,4.0,6.0,41,0.00,,,0.00,meteohub,2013-09-05 08:32:00,
2013-09-05 01:37:00,61.0,37.0,29.19,SSE,155,0.0,6.0,41,0.00,,,0.00,meteohub,2013-09-05 08:37:00,
2013-09-05 01:42:00,61.0,37.0,29.19,ENE,59,0.0,5.0,41,0.00,,,0.00,meteohub,2013-09-05 08:42:00,
2013-09-05 01:47:00,61.0,37.8,29.19,SSE,149,0.0,10.0,42,0.00,,,0.00,meteohub,2013-09-05 08:47:00,
2013-09-05 01:52:00,61.0,37.8,29.19,SE,126,0.0,10.0,42,0.00,,,0.00,meteohub,2013-09-05 08:52:00,
2013-09-05 01:57:00,61.0,37.8,29.19,ESE,116,9.0,10.0,42,0.00,,,0.00,meteohub,2013-09-05 08:57:00,
2013-09-05 02:02:00,61.0,37.8,29.19,SSE,158,0.0,9.0,42,0.00,,,0.00,meteohub,2013-09-05 09:02:00,
2013-09-05 02:07:00,61.0,37.0,29.19,East,97,3.0,9.0,41,0.00,,,0.00,meteohub,2013-09-05 09:07:00,
2013-09-05 02:12:00,60.8,36.9,29.19,SW,230,0.0,9.0,41,0.00,,,0.00,meteohub,2013-09-05 09:12:00,
2013-09-05 02:17:00,60.8,36.9,29.19,South,177,0.0,6.0,41,0.00,,,0.00,meteohub,2013-09-05 09:17:00,
2013-09-05 02:22:00,60.6,37.9,29.19,East,79,0.0,6.0,43,0.00,,,0.00,meteohub,2013-09-05 09:22:00,
2013-09-05 02:27:00,60.6,37.9,29.19,ENE,66,0.0,4.0,43,0.00,,,0.00,meteohub,2013-09-05 09:27:00,
2013-09-05 02:32:00,60.4,37.8,29.19,ENE,62,5.0,5.0,43,0.00,,,0.00,meteohub,2013-09-05 09:32:00,
2013-09-05 02:37:00,60.4,38.5,29.19,ESE,112,0.0,5.0,44,0.00,,,0.00,meteohub,2013-09-05 09:37:00,
2013-09-05 02:42:00,60.3,38.3,29.19,NNE,24,0.0,5.0,44,0.00,,,0.00,meteohub,2013-09-05 09:42:00,
2013-09-05 02:47:00,60.3,37.8,29.19,WNW,301,0.0,5.0,43,0.00,,,0.00,meteohub,2013-09-05 09:47:00,
2013-09-05 02:52:00,60.3,38.3,29.19,WNW,302,0.0,4.0,44,0.00,,,0.00,meteohub,2013-09-05 09:52:00,
2013-09-05 02:57:00,60.1,38.1,29.19,NNW,341,3.0,4.0,44,0.00,,,0.00,meteohub,2013-09-05 09:57:00,
2013-09-05 03:02:00,60.1,38.1,29.19,West,268,0.0,4.0,44,0.00,,,0.00,meteohub,2013-09-05 10:02:00,
2013-09-05 03:07:00,60.1,38.1,29.19,SE,132,0.0,4.0,44,0.00,,,0.00,meteohub,2013-09-05 10:07:00,
2013-09-05 03:12:00,59.9,37.9,29.16,SW,231,0.0,4.0,44,0.00,,,0.00,meteohub,2013-09-05 10:12:00,
2013-09-05 03:17:00,59.9,37.9,29.16,NNE,31,0.0,3.0,44,0.00,,,0.00,meteohub,2013-09-05 10:17:00,
2013-09-05 03:22:00,59.9,37.9,29.16,SSW,195,3.0,4.0,44,0.00,,,0.00,meteohub,2013-09-05 10:22:00,
2013-09-05 03:27:00,59.7,37.8,29.16,SSW,196,0.0,4.0,44,0.00,,,0.00,meteohub,2013-09-05 10:27:00,
2013-09-05 03:32:00,59.7,37.8,29.16,East,93,3.0,4.0,44,0.00,,,0.00,meteohub,2013-09-05 10:32:00,
2013-09-05 03:37:00,59.7,38.3,29.16,East,101,0.0,4.0,45,0.00,,,0.00,meteohub,2013-09-05 10:37:00,
2013-09-05 03:42:00,59.7,38.3,29.19,WSW,251,0.0,5.0,45,0.00,,,0.00,meteohub,2013-09-05 10:42:00,
2013-09-05 03:47:00,59.7,38.3,29.19,East,98,0.0,5.0,45,0.00,,,0.00,meteohub,2013-09-05 10:47:00,
2013-09-05 03:53:00,59.7,37.8,29.19,ENE,69,0.0,5.0,44,0.00,,,0.00,meteohub,2013-09-05 10:53:00,
2013-09-05 03:59:00,59.7,38.3,29.19,SW,235,0.0,4.0,45,0.00,,,0.00,meteohub,2013-09-05 10:59:00,
2013-09-05 04:05:00,59.5,38.1,29.19,SSW,201,0.0,3.0,45,0.00,,,0.00,meteohub,2013-09-05 11:05:00,
2013-09-05 04:11:00,59.4,37.9,29.19,WNW,299,0.0,6.0,45,0.00,,,0.00,meteohub,2013-09-05 11:11:00,
2013-09-05 04:17:00,59.2,37.9,29.19,SW,222,0.0,6.0,45,0.00,,,0.00,meteohub,2013-09-05 11:17:00,
2013-09-05 04:22:00,59.2,37.9,29.19,West,274,0.0,6.0,45,0.00,,,0.00,meteohub,2013-09-05 11:22:00,
2013-09-05 04:27:00,59.0,38.3,29.19,SE,130,0.0,4.0,46,0.00,,,0.00,meteohub,2013-09-05 11:27:00,
2013-09-05 04:32:00,58.8,38.1,29.19,SW,226,0.0,0.0,46,0.00,,,0.00,meteohub,2013-09-05 11:32:00,
2013-09-05 04:37:00,58.8,38.1,29.19,SE,145,0.0,3.0,46,0.00,,,0.00,meteohub,2013-09-05 11:37:00,
2013-09-05 04:42:00,58.6,37.9,29.19,WSW,243,0.0,3.0,46,0.00,,,0.00,meteohub,2013-09-05 11:42:00,
2013-09-05 04:47:00,58.6,37.9,29.19,WNW,295,0.0,4.0,46,0.00,,,0.00,meteohub,2013-09-05 11:47:00,
2013-09-05 04:52:00,58.6,37.9,29.19,NW,321,0.0,4.0,46,0.00,,,0.00,meteohub,2013-09-05 11:52:00,
2013-09-05 04:57:00,58.6,38.5,29.19,NW,321,0.0,2.0,47,0.00,,,0.00,meteohub,2013-09-05 11:57:00,
2013-09-05 05:02:00,58.6,37.9,29.19,West,260,0.0,0.0,46,0.00,,,0.00,meteohub,2013-09-05 12:02:00,
2013-09-05 05:07:00,58.6,38.5,29.19,NE,40,0.0,4.0,47,0.00,,,0.00,meteohub,2013-09-05 12:07:00,
2013-09-05 05:12:00,58.6,38.5,29.19,SSW,192,0.0,4.0,47,0.00,,,0.00,meteohub,2013-09-05 12:12:00,
2013-09-05 05:17:00,58.6,37.9,29.19,ENE,78,0.0,4.0,46,0.00,,,0.00,meteohub,2013-09-05 12:17:00,
2013-09-05 05:23:00,58.8,38.1,29.19,NW,319,0.0,4.0,46,0.00,,,0.00,meteohub,2013-09-05 12:23:00,
2013-09-05 05:29:00,58.6,37.9,29.19,West,281,0.0,8.0,46,0.00,,,0.00,meteohub,2013-09-05 12:29:00,
2013-09-05 05:35:00,58.6,37.9,29.19,NNW,328,0.0,8.0,46,0.00,,,0.00,meteohub,2013-09-05 12:35:00,
2013-09-05 05:41:00,58.6,37.9,29.19,South,185,0.0,8.0,46,0.00,,,0.00,meteohub,2013-09-05 12:41:00,
2013-09-05 05:47:00,58.5,37.8,29.19,NNW,337,3.0,4.0,46,0.00,,,0.00,meteohub,2013-09-05 12:47:00,
2013-09-05 05:52:00,58.5,37.8,29.19,NNE,22,0.0,3.0,46,0.00,,,0.00,meteohub,2013-09-05 12:52:00,
2013-09-05 05:57:00,58.5,37.8,29.19,NW,316,0.0,6.0,46,0.00,,,0.00,meteohub,2013-09-05 12:57:00,
2013-09-05 06:02:00,58.5,37.8,29.19,NNW,330,0.0,6.0,46,0.00,,,0.00,meteohub,2013-09-05 13:02:00,
2013-09-05 06:07:00,58.5,37.8,29.19,WNW,290,0.0,6.0,46,0.00,,,0.00,meteohub,2013-09-05 13:07:00,
2013-09-05 06:12:00,58.3,38.1,29.19,NE,49,0.0,2.0,47,0.00,,,0.00,meteohub,2013-09-05 13:12:00,
2013-09-05 06:17:00,58.3,38.1,29.19,NNW,341,0.0,2.0,47,0.00,,,0.00,meteohub,2013-09-05 13:17:00,
2013-09-05 06:22:00,58.1,38.5,29.19,North,353,0.0,0.0,48,0.00,,,0.00,meteohub,2013-09-05 13:22:00,
2013-09-05 06:27:00,58.1,37.9,29.19,North,0,0.0,0.0,47,0.00,,,0.00,meteohub,2013-09-05 13:27:00,
2013-09-05 06:32:00,57.9,37.8,29.19,North,353,0.0,0.0,47,0.00,,,0.00,meteohub,2013-09-05 13:32:00,
2013-09-05 06:37:00,57.9,37.8,29.19,ENE,63,0.0,0.0,47,0.00,,,0.00,meteohub,2013-09-05 13:37:00,
2013-09-05 06:42:00,57.9,37.2,29.19,ENE,73,0.0,0.0,46,0.00,,,0.00,meteohub,2013-09-05 13:42:00,
2013-09-05 06:47:00,57.9,37.2,29.19,SW,224,0.0,3.0,46,0.00,,,0.00,meteohub,2013-09-05 13:47:00,
2013-09-05 06:52:00,57.9,37.2,29.19,WNW,295,0.0,3.0,46,0.00,,,0.00,meteohub,2013-09-05 13:52:00,
2013-09-05 06:57:00,57.7,37.0,29.19,North,350,0.0,3.0,46,0.00,,,0.00,meteohub,2013-09-05 13:57:00,
2013-09-05 07:02:00,57.9,37.2,29.19,NW,318,0.0,4.0,46,0.00,,,0.00,meteohub,2013-09-05 14:02:00,
2013-09-05 07:07:00,57.9,37.2,29.19,West,280,0.0,4.0,46,0.00,,,0.00,meteohub,2013-09-05 14:07:00,
2013-09-05 07:12:00,57.9,37.2,29.22,NNE,17,0.0,4.0,46,0.00,,,0.00,meteohub,2013-09-05 14:12:00,
2013-09-05 07:17:00,57.9,37.2,29.22,NNE,28,3.0,4.0,46,0.00,,,0.00,meteohub,2013-09-05 14:17:00,
2013-09-05 07:22:00,58.1,36.9,29.22,ESE,117,0.0,4.0,45,0.00,,,0.00,meteohub,2013-09-05 14:22:00,
2013-09-05 07:27:00,58.3,37.0,29.22,SE,138,0.0,4.0,45,0.00,,,0.00,meteohub,2013-09-05 14:27:00,
2013-09-05 07:32:00,58.5,37.2,29.22,SSW,193,0.0,3.0,45,0.00,,,0.00,meteohub,2013-09-05 14:32:00,
2013-09-05 07:37:00,58.6,37.4,29.22,SSE,163,0.0,0.0,45,0.00,,,0.00,meteohub,2013-09-05 14:37:00,
2013-09-05 07:42:00,59.0,37.0,29.22,SSE,163,0.0,5.0,44,0.00,,,0.00,meteohub,2013-09-05 14:42:00,
2013-09-05 07:47:00,59.2,37.2,29.22,SSE,162,0.0,5.0,44,0.00,,,0.00,meteohub,2013-09-05 14:47:00,
2013-09-05 07:52:00,59.4,36.9,29.22,SSE,162,0.0,0.0,43,0.00,,,0.00,meteohub,2013-09-05 14:52:00,
2013-09-05 07:57:00,59.7,36.5,29.22,ESE,118,0.0,0.0,42,0.00,,,0.00,meteohub,2013-09-05 14:57:00,
2013-09-05 08:02:00,59.9,36.7,29.22,SSE,161,0.0,0.0,42,0.00,,,0.00,meteohub,2013-09-05 15:02:00,
2013-09-05 08:07:00,60.4,36.7,29.22,WSW,248,0.0,0.0,41,0.00,,,0.00,meteohub,2013-09-05 15:07:00,
2013-09-05 08:12:00,60.8,36.3,29.22,SE,144,0.0,0.0,40,0.00,,,0.00,meteohub,2013-09-05 15:12:00,
2013-09-05 08:17:00,61.2,36.0,29.22,SSW,193,0.0,2.0,39,0.00,,,0.00,meteohub,2013-09-05 15:17:00,
2013-09-05 08:22:00,61.5,36.3,29.22,WSW,253,0.0,5.0,39,0.00,,,0.00,meteohub,2013-09-05 15:22:00,
2013-09-05 08:27:00,61.9,36.0,29.22,ESE,119,0.0,5.0,38,0.00,,,0.00,meteohub,2013-09-05 15:27:00,
2013-09-05 08:32:00,62.4,35.8,29.22,SSE,165,0.0,5.0,37,0.00,,,0.00,meteohub,2013-09-05 15:32:00,
2013-09-05 08:37:00,62.8,35.4,29.22,WSW,249,3.0,5.0,36,0.00,,,0.00,meteohub,2013-09-05 15:37:00,
2013-09-05 08:42:00,63.0,35.6,29.22,ESE,105,0.0,5.0,36,0.00,,,0.00,meteohub,2013-09-05 15:42:00,
2013-09-05 08:47:00,63.3,35.2,29.22,NNW,332,3.0,4.0,35,0.00,,,0.00,meteohub,2013-09-05 15:47:00,
2013-09-05 08:53:00,63.7,35.6,29.22,NNE,30,4.0,4.0,35,0.00,,,0.00,meteohub,2013-09-05 15:53:00,
2013-09-05 08:59:00,64.0,35.8,29.22,South,175,2.0,4.0,35,0.00,,,0.00,meteohub,2013-09-05 15:59:00,
2013-09-05 09:04:00,64.6,35.6,29.22,NW,318,0.0,4.0,34,0.00,,,0.00,meteohub,2013-09-05 16:04:00,
2013-09-05 09:10:00,65.1,36.1,29.22,SSW,200,0.0,4.0,34,0.00,,,0.00,meteohub,2013-09-05 16:10:00,
2013-09-05 09:16:00,65.7,35.8,29.22,WSW,248,0.0,4.0,33,0.00,,,0.00,meteohub,2013-09-05 16:16:00,
2013-09-05 09:22:00,66.0,36.1,29.22,NW,318,0.0,4.0,33,0.00,,,0.00,meteohub,2013-09-05 16:22:00,
2013-09-05 09:27:00,66.6,36.5,29.22,SE,138,0.0,4.0,33,0.00,,,0.00,meteohub,2013-09-05 16:27:00,
2013-09-05 09:32:00,66.9,36.1,29.22,NNE,29,0.0,4.0,32,0.00,,,0.00,meteohub,2013-09-05 16:32:00,
2013-09-05 09:37:00,67.5,36.5,29.22,SSW,201,0.0,4.0,32,0.00,,,0.00,meteohub,2013-09-05 16:37:00,
2013-09-05 09:42:00,67.8,35.2,29.22,SSE,168,0.0,4.0,30,0.00,,,0.00,meteohub,2013-09-05 16:42:00,
2013-09-05 09:47:00,68.4,34.0,29.22,NE,43,0.0,4.0,28,0.00,,,0.00,meteohub,2013-09-05 16:47:00,
2013-09-05 09:52:00,68.9,34.5,29.22,WNW,291,0.0,4.0,28,0.00,,,0.00,meteohub,2013-09-05 16:52:00,
2013-09-05 09:57:00,69.4,34.0,29.22,WSW,249,0.0,4.0,27,0.00,,,0.00,meteohub,2013-09-05 16:57:00,
2013-09-05 10:02:00,69.8,33.4,29.22,SSE,153,0.0,4.0,26,0.00,,,0.00,meteohub,2013-09-05 17:02:00,
2013-09-05 10:07:00,70.0,33.4,29.22,SSE,150,3.0,4.0,26,0.00,,,0.00,meteohub,2013-09-05 17:07:00,
2013-09-05 10:12:00,70.7,34.2,29.22,SE,137,0.0,5.0,26,0.00,,,0.00,meteohub,2013-09-05 17:12:00,
2013-09-05 10:17:00,71.6,32.9,29.22,SE,133,4.0,5.0,24,0.00,,,0.00,meteohub,2013-09-05 17:17:00,
2013-09-05 10:23:00,72.3,33.4,29.22,SE,133,5.0,5.0,24,0.00,,,0.00,meteohub,2013-09-05 17:23:00,
2013-09-05 10:29:00,72.3,33.4,29.22,East,96,2.0,5.0,24,0.00,,,0.00,meteohub,2013-09-05 17:29:00,
2013-09-05 10:35:00,73.0,33.1,29.22,East,79,6.0,6.0,23,0.00,,,0.00,meteohub,2013-09-05 17:35:00,
2013-09-05 10:41:00,73.0,34.2,29.22,SSE,154,3.0,6.0,24,0.00,,,0.00,meteohub,2013-09-05 17:41:00,
2013-09-05 10:47:00,73.8,33.6,29.22,ESE,119,4.0,6.0,23,0.00,,,0.00,meteohub,2013-09-05 17:47:00,
2013-09-05 10:52:00,74.7,33.3,29.22,SSW,212,0.0,6.0,22,0.00,,,0.00,meteohub,2013-09-05 17:52:00,
2013-09-05 10:57:00,75.4,34.0,29.22,SSW,207,2.0,6.0,22,0.00,,,0.00,meteohub,2013-09-05 17:57:00,
2013-09-05 11:02:00,75.2,32.5,29.22,NNE,13,3.0,6.0,21,0.00,,,0.00,meteohub,2013-09-05 18:02:00,
2013-09-05 11:07:00,74.3,31.8,29.22,NNE,14,4.0,8.0,21,0.00,,,0.00,meteohub,2013-09-05 18:07:00,
2013-09-05 11:12:00,73.9,32.7,29.22,South,188,3.0,8.0,22,0.00,,,0.00,meteohub,2013-09-05 18:12:00,
2013-09-05 11:17:00,74.5,32.0,29.22,NNW,336,3.0,6.0,21,0.00,,,0.00,meteohub,2013-09-05 18:17:00,
2013-09-05 11:22:00,74.3,31.8,29.22,NW,306,4.0,6.0,21,0.00,,,0.00,meteohub,2013-09-05 18:22:00,
2013-09-05 11:28:00,74.5,32.0,29.22,WNW,286,2.0,6.0,21,0.00,,,0.00,meteohub,2013-09-05 18:28:00,
2013-09-05 11:34:00,75.6,32.9,29.22,WSW,244,4.0,5.0,21,0.00,,,0.00,meteohub,2013-09-05 18:34:00,
2013-09-05 11:40:00,75.0,32.4,29.22,NNW,334,5.0,6.0,21,0.00,,,0.00,meteohub,2013-09-05 18:40:00,
2013-09-05 11:45:00,74.5,32.0,29.22,NW,323,0.0,6.0,21,0.00,,,0.00,meteohub,2013-09-05 18:45:00,
2013-09-05 11:51:00,75.6,32.9,29.22,SE,136,0.0,5.0,21,0.00,,,0.00,meteohub,2013-09-05 18:51:00,
2013-09-05 11:56:00,76.8,34.0,29.22,NE,42,0.0,5.0,21,0.00,,,0.00,meteohub,2013-09-05 18:56:00,
2013-09-05 12:02:00,77.7,33.4,29.22,West,279,0.0,5.0,20,0.00,,,0.00,meteohub,2013-09-05 19:02:00,
2013-09-05 12:07:00,78.6,34.2,29.22,South,179,7.0,7.0,20,0.00,,,0.00,meteohub,2013-09-05 19:07:00,
2013-09-05 12:12:00,78.8,34.3,29.22,WSW,243,4.0,7.0,20,0.00,,,0.00,meteohub,2013-09-05 19:12:00,
2013-09-05 12:17:00,78.3,34.0,29.22,NNW,328,3.0,7.0,20,0.00,,,0.00,meteohub,2013-09-05 19:17:00,
2013-09-05 12:22:00,78.4,34.0,29.22,ENE,64,2.0,7.0,20,0.00,,,0.00,meteohub,2013-09-05 19:22:00,
2013-09-05 12:27:00,78.4,34.0,29.22,WNW,292,7.0,7.0,20,0.00,,,0.00,meteohub,2013-09-05 19:27:00,
2013-09-05 12:32:00,77.9,33.6,29.22,WSW,238,0.0,7.0,20,0.00,,,0.00,meteohub,2013-09-05 19:32:00,
2013-09-05 12:37:00,78.8,34.3,29.22,West,281,0.0,7.0,20,0.00,,,0.00,meteohub,2013-09-05 19:37:00,
2013-09-05 12:42:00,78.8,34.3,29.22,ESE,117,6.0,7.0,20,0.00,,,0.00,meteohub,2013-09-05 19:42:00,
2013-09-05 12:47:00,79.5,34.9,29.22,NW,320,0.0,7.0,20,0.00,,,0.00,meteohub,2013-09-05 19:47:00,
2013-09-05 12:52:00,80.1,35.4,29.22,SSW,197,3.0,7.0,20,0.00,,,0.00,meteohub,2013-09-05 19:52:00,
2013-09-05 12:57:00,81.0,34.9,29.22,North,11,3.0,6.0,19,0.00,,,0.00,meteohub,2013-09-05 19:57:00,
2013-09-05 13:02:00,81.5,35.2,29.22,West,281,4.0,6.0,19,0.00,,,0.00,meteohub,2013-09-05 20:02:00,
2013-09-05 13:07:00,82.0,35.8,29.22,ESE,121,0.0,6.0,19,0.00,,,0.00,meteohub,2013-09-05 20:07:00,
2013-09-05 13:12:00,81.5,32.5,29.22,North,4,2.0,6.0,17,0.00,,,0.00,meteohub,2013-09-05 20:12:00,
2013-09-05 13:17:00,81.0,32.0,29.22,West,278,5.0,6.0,17,0.00,,,0.00,meteohub,2013-09-05 20:17:00,
2013-09-05 13:22:00,81.0,32.0,29.22,NNE,24,3.0,6.0,17,0.00,,,0.00,meteohub,2013-09-05 20:22:00,
2013-09-05 13:27:00,81.7,32.5,29.22,WNW,302,6.0,6.0,17,0.00,,,0.00,meteohub,2013-09-05 20:27:00,
2013-09-05 13:32:00,81.9,32.7,29.22,North,7,4.0,6.0,17,0.00,,,0.00,meteohub,2013-09-05 20:32:00,
2013-09-05 13:37:00,81.1,32.2,29.22,West,263,4.0,6.0,17,0.00,,,0.00,meteohub,2013-09-05 20:37:00,
2013-09-05 13:42:00,81.1,32.2,29.22,WNW,282,3.0,6.0,17,0.00,,,0.00,meteohub,2013-09-05 20:42:00,
2013-09-05 13:47:00,81.7,32.5,29.22,WNW,289,4.0,6.0,17,0.00,,,0.00,meteohub,2013-09-05 20:47:00,
2013-09-05 13:52:00,80.6,31.8,29.22,NNW,339,3.0,8.0,17,0.00,,,0.00,meteohub,2013-09-05 20:52:00,
2013-09-05 13:57:00,80.6,31.8,29.22,ENE,57,4.0,8.0,17,0.00,,,0.00,meteohub,2013-09-05 20:57:00,
2013-09-05 14:02:00,81.7,32.5,29.22,SSE,150,0.0,8.0,17,0.00,,,0.00,meteohub,2013-09-05 21:02:00,
2013-09-05 14:07:00,82.6,31.8,29.22,ENE,78,3.0,6.0,16,0.00,,,0.00,meteohub,2013-09-05 21:07:00,
2013-09-05 14:12:00,83.1,32.4,29.22,NNE,14,4.0,6.0,16,0.00,,,0.00,meteohub,2013-09-05 21:12:00,
2013-09-05 14:17:00,83.5,32.5,29.22,WSW,253,6.0,6.0,16,0.00,,,0.00,meteohub,2013-09-05 21:17:00,
2013-09-05 14:22:00,84.0,33.1,29.22,West,266,4.0,6.0,16,0.00,,,0.00,meteohub,2013-09-05 21:22:00,
2013-09-05 14:27:00,84.0,33.1,29.22,SE,137,6.0,8.0,16,0.00,,,0.00,meteohub,2013-09-05 21:27:00,
2013-09-05 14:32:00,84.0,33.1,29.22,SSW,200,3.0,8.0,16,0.00,,,0.00,meteohub,2013-09-05 21:32:00,
2013-09-05 14:37:00,83.7,32.7,29.22,North,353,2.0,8.0,16,0.00,,,0.00,meteohub,2013-09-05 21:37:00,
2013-09-05 14:42:00,84.0,33.1,29.19,South,176,0.0,9.0,16,0.00,,,0.00,meteohub,2013-09-05 21:42:00,
2013-09-05 14:47:00,85.1,33.8,29.19,WNW,296,3.0,9.0,16,0.00,,,0.00,meteohub,2013-09-05 21:47:00,
2013-09-05 14:52:00,85.3,34.0,29.19,North,0,0.0,9.0,16,0.00,,,0.00,meteohub,2013-09-05 21:52:00,
2013-09-05 14:57:00,85.8,34.5,29.19,SE,127,5.0,8.0,16,0.00,,,0.00,meteohub,2013-09-05 21:57:00,
2013-09-05 15:02:00,86.4,34.9,29.19,SE,130,0.0,8.0,16,0.00,,,0.00,meteohub,2013-09-05 22:02:00,
2013-09-05 15:07:00,86.4,34.9,29.19,SE,127,4.0,8.0,16,0.00,,,0.00,meteohub,2013-09-05 22:07:00,
2013-09-05 15:12:00,86.4,34.9,29.19,North,0,3.0,8.0,16,0.00,,,0.00,meteohub,2013-09-05 22:12:00,
2013-09-05 15:17:00,85.8,34.5,29.19,SE,145,3.0,6.0,16,0.00,,,0.00,meteohub,2013-09-05 22:17:00,
2013-09-05 15:22:00,86.2,34.7,29.19,East,87,7.0,7.0,16,0.00,,,0.00,meteohub,2013-09-05 22:22:00,
2013-09-05 15:27:00,86.2,34.7,29.19,NNW,342,0.0,7.0,16,0.00,,,0.00,meteohub,2013-09-05 22:27:00,
2013-09-05 15:32:00,86.0,34.5,29.19,SW,218,3.0,7.0,16,0.00,,,0.00,meteohub,2013-09-05 22:32:00,
2013-09-05 15:37:00,86.4,34.9,29.19,North,349,2.0,7.0,16,0.00,,,0.00,meteohub,2013-09-05 22:37:00,
2013-09-05 15:42:00,86.9,35.2,29.19,South,189,4.0,6.0,16,0.00,,,0.00,meteohub,2013-09-05 22:42:00,
2013-09-05 15:47:00,87.1,35.4,29.19,NW,321,3.0,6.0,16,0.00,,,0.00,meteohub,2013-09-05 22:47:00,
2013-09-05 15:52:00,86.9,35.2,29.19,North,357,3.0,8.0,16,0.00,,,0.00,meteohub,2013-09-05 22:52:00,
2013-09-05 15:57:00,85.3,34.0,29.19,South,170,3.0,9.0,16,0.00,,,0.00,meteohub,2013-09-05 22:57:00,
2013-09-05 16:02:00,84.9,33.8,29.19,North,353,3.0,9.0,16,0.00,,,0.00,meteohub,2013-09-05 23:02:00,
2013-09-05 16:07:00,85.3,34.0,29.19,NNW,344,4.0,6.0,16,0.00,,,0.00,meteohub,2013-09-05 23:07:00,
2013-09-05 16:12:00,84.7,33.6,29.19,North,353,3.0,6.0,16,0.00,,,0.00,meteohub,2013-09-05 23:12:00,
2013-09-05 16:17:00,84.2,33.1,29.19,NE,56,0.0,6.0,16,0.00,,,0.00,meteohub,2013-09-05 23:17:00,
2013-09-05 16:22:00,84.9,33.8,29.19,NW,313,3.0,6.0,16,0.00,,,0.00,meteohub,2013-09-05 23:22:00,
2013-09-05 16:27:00,85.3,34.0,29.19,ENE,60,5.0,8.0,16,0.00,,,0.00,meteohub,2013-09-05 23:27:00,
2013-09-05 16:32:00,85.6,34.3,29.19,South,188,4.0,8.0,16,0.00,,,0.00,meteohub,2013-09-05 23:32:00,
2013-09-05 16:38:00,86.4,34.9,29.19,South,181,0.0,8.0,16,0.00,,,0.00,meteohub,2013-09-05 23:38:00,
2013-09-05 16:43:00,87.1,35.4,29.19,SSE,152,5.0,7.0,16,0.00,,,0.00,meteohub,2013-09-05 23:43:00,
2013-09-05 16:49:00,86.4,34.9,29.19,SW,214,0.0,7.0,16,0.00,,,0.00,meteohub,2013-09-05 23:49:00,
2013-09-05 16:55:00,86.7,35.2,29.19,ENE,60,3.0,7.0,16,0.00,,,0.00,meteohub,2013-09-05 23:55:00,
2013-09-05 17:01:00,86.4,34.9,29.19,SSE,149,0.0,8.0,16,0.00,,,0.00,meteohub,2013-09-06 00:01:00,
2013-09-05 17:07:00,87.1,35.4,29.19,ENE,73,8.0,8.0,16,0.00,,,0.00,meteohub,2013-09-06 00:07:00,
2013-09-05 17:12:00,87.1,35.4,29.19,NW,310,0.0,8.0,16,0.00,,,0.00,meteohub,2013-09-06 00:12:00,
2013-09-05 17:17:00,86.0,34.5,29.19,North,357,3.0,9.0,16,0.00,,,0.00,meteohub,2013-09-06 00:17:00,
2013-09-05 17:22:00,86.0,34.5,29.19,SE,141,3.0,9.0,16,0.00,,,0.00,meteohub,2013-09-06 00:22:00,
2013-09-05 17:27:00,85.6,34.3,29.19,South,186,4.0,9.0,16,0.00,,,0.00,meteohub,2013-09-06 00:27:00,
2013-09-05 17:32:00,85.5,34.2,29.19,West,279,5.0,7.0,16,0.00,,,0.00,meteohub,2013-09-06 00:32:00,
2013-09-05 17:37:00,85.5,34.2,29.19,West,276,3.0,7.0,16,0.00,,,0.00,meteohub,2013-09-06 00:37:00,
2013-09-05 17:42:00,84.9,33.8,29.19,SW,235,4.0,7.0,16,0.00,,,0.00,meteohub,2013-09-06 00:42:00,
2013-09-05 17:47:00,84.6,33.4,29.19,NE,47,2.0,7.0,16,0.00,,,0.00,meteohub,2013-09-06 00:47:00,
2013-09-05 17:52:00,84.0,33.1,29.19,North,353,4.0,9.0,16,0.00,,,0.00,meteohub,2013-09-06 00:52:00,
2013-09-05 17:57:00,83.8,32.9,29.19,East,90,3.0,9.0,16,0.00,,,0.00,meteohub,2013-09-06 00:57:00,
2013-09-05 18:02:00,83.8,32.9,29.19,ESE,120,2.0,9.0,16,0.00,,,0.00,meteohub,2013-09-06 01:02:00,
2013-09-05 18:07:00,83.1,32.4,29.19,South,191,3.0,5.0,16,0.00,,,0.00,meteohub,2013-09-06 01:07:00,
2013-09-05 18:12:00,81.9,32.7,29.19,East,94,2.0,7.0,17,0.00,,,0.00,meteohub,2013-09-06 01:12:00,
2013-09-05 18:17:00,80.4,31.6,29.19,NE,43,0.0,7.0,17,0.00,,,0.00,meteohub,2013-09-06 01:17:00,
2013-09-05 18:22:00,79.2,30.6,29.19,NW,323,2.0,6.0,17,0.00,,,0.00,meteohub,2013-09-06 01:22:00,
2013-09-05 18:27:00,78.3,31.3,29.19,WSW,237,6.0,8.0,18,0.00,,,0.00,meteohub,2013-09-06 01:27:00,
2013-09-05 18:32:00,77.4,30.6,29.19,SW,221,0.0,8.0,18,0.00,,,0.00,meteohub,2013-09-06 01:32:00,
2013-09-05 18:37:00,76.5,29.8,29.19,SSE,165,8.0,8.0,18,0.00,,,0.00,meteohub,2013-09-06 01:37:00,
2013-09-05 18:42:00,75.7,29.3,29.19,NE,38,6.0,8.0,18,0.00,,,0.00,meteohub,2013-09-06 01:42:00,
2013-09-05 18:47:00,75.2,28.8,29.19,East,93,0.0,8.0,18,0.00,,,0.00,meteohub,2013-09-06 01:47:00,
2013-09-05 18:52:00,74.5,28.2,29.19,East,87,2.0,8.0,18,0.00,,,0.00,meteohub,2013-09-06 01:52:00,
2013-09-05 18:57:00,73.8,27.7,29.19,SSE,158,5.0,6.0,18,0.00,,,0.00,meteohub,2013-09-06 01:57:00,
2013-09-05 19:02:00,73.4,31.1,29.19,SE,126,4.0,6.0,21,0.00,,,0.00,meteohub,2013-09-06 02:02:00,
2013-09-05 19:07:00,73.0,30.7,29.19,North,353,2.0,6.0,21,0.00,,,0.00,meteohub,2013-09-06 02:07:00,
2013-09-05 19:12:00,72.9,30.6,29.19,ESE,102,3.0,6.0,21,0.00,,,0.00,meteohub,2013-09-06 02:12:00,
2013-09-05 19:17:00,72.5,30.4,29.19,SW,219,2.0,5.0,21,0.00,,,0.00,meteohub,2013-09-06 02:17:00,
2013-09-05 19:22:00,72.1,30.0,29.19,ENE,67,7.0,7.0,21,0.00,,,0.00,meteohub,2013-09-06 02:22:00,
2013-09-05 19:27:00,71.8,30.9,29.19,West,260,0.0,7.0,22,0.00,,,0.00,meteohub,2013-09-06 02:27:00,
2013-09-05 19:32:00,71.4,30.6,29.19,South,190,2.0,7.0,22,0.00,,,0.00,meteohub,2013-09-06 02:32:00,
2013-09-05 19:37:00,71.1,30.2,29.19,South,187,0.0,7.0,22,0.00,,,0.00,meteohub,2013-09-06 02:37:00,
2013-09-05 19:42:00,70.7,30.0,29.19,SE,143,0.0,5.0,22,0.00,,,0.00,meteohub,2013-09-06 02:42:00,
2013-09-05 19:47:00,70.5,29.8,29.19,SSW,201,3.0,5.0,22,0.00,,,0.00,meteohub,2013-09-06 02:47:00,
2013-09-05 19:52:00,70.2,29.5,29.19,ESE,114,0.0,5.0,22,0.00,,,0.00,meteohub,2013-09-06 02:52:00,
2013-09-05 19:57:00,69.8,30.4,29.19,ENE,74,3.0,5.0,23,0.00,,,0.00,meteohub,2013-09-06 02:57:00,
2013-09-05 20:02:00,69.6,30.2,29.19,ENE,64,4.0,5.0,23,0.00,,,0.00,meteohub,2013-09-06 03:02:00,
2013-09-05 20:07:00,69.3,29.8,29.19,SSE,149,3.0,6.0,23,0.00,,,0.00,meteohub,2013-09-06 03:07:00,
2013-09-05 20:12:00,68.9,29.7,29.19,SE,134,0.0,6.0,23,0.00,,,0.00,meteohub,2013-09-06 03:12:00,
2013-09-05 20:17:00,68.5,29.3,29.19,SSE,165,0.0,6.0,23,0.00,,,0.00,meteohub,2013-09-06 03:17:00,
2013-09-05 20:22:00,68.4,29.1,29.19,South,171,0.0,6.0,23,0.00,,,0.00,meteohub,2013-09-06 03:22:00,
2013-09-05 20:28:00,68.2,30.0,29.22,West,279,0.0,6.0,24,0.00,,,0.00,meteohub,2013-09-06 03:28:00,
2013-09-05 20:34:00,67.8,29.7,29.22,ENE,68,0.0,5.0,24,0.00,,,0.00,meteohub,2013-09-06 03:34:00,
2013-09-05 20:40:00,67.6,30.6,29.22,NNE,15,0.0,5.0,25,0.00,,,0.00,meteohub,2013-09-06 03:40:00,
2013-09-05 20:46:00,67.3,29.3,29.22,SE,139,3.0,6.0,24,0.00,,,0.00,meteohub,2013-09-06 03:46:00,
2013-09-05 20:52:00,67.1,30.0,29.22,East,89,0.0,6.0,25,0.00,,,0.00,meteohub,2013-09-06 03:52:00,
2013-09-05 20:57:00,66.9,30.0,29.22,East,98,2.0,7.0,25,0.00,,,0.00,meteohub,2013-09-06 03:57:00,
2013-09-05 21:01:00,66.9,30.0,29.22,SSW,207,0.0,8.0,25,0.00,,,0.00,meteohub,2013-09-06 04:01:00,
2013-09-05 21:02:00,66.7,29.8,29.22,South,187,4.0,8.0,25,0.00,,,0.00,meteohub,2013-09-06 04:02:00,
2013-09-05 21:05:00,66.7,29.8,29.22,ENE,77,0.0,8.0,25,0.00,,,0.00,meteohub,2013-09-06 04:05:00,
2013-09-05 21:06:00,66.7,29.8,29.22,ENE,62,0.0,8.0,25,0.00,,,0.00,meteohub,2013-09-06 04:06:00,
2013-09-05 21:09:00,66.6,29.7,29.22,South,169,3.0,8.0,25,0.00,,,0.00,meteohub,2013-09-06 04:09:00,
2013-09-05 21:15:00,66.4,29.5,29.22,SSW,207,6.0,12.0,25,0.00,,,0.00,meteohub,2013-09-06 04:15:00,
2013-09-05 21:21:00,66.2,29.3,29.22,NE,54,3.0,12.0,25,0.00,,,0.00,meteohub,2013-09-06 04:21:00,
2013-09-05 21:25:00,66.0,30.2,29.22,WSW,251,0.0,12.0,26,0.00,,,0.00,meteohub,2013-09-06 04:25:00,
2013-09-05 21:31:00,66.0,30.2,29.22,NNW,348,0.0,6.0,26,0.00,,,0.00,meteohub,2013-09-06 04:31:00,
2013-09-05 21:37:00,65.8,30.0,29.22,SE,137,0.0,5.0,26,0.00,,,0.00,meteohub,2013-09-06 04:37:00,
2013-09-05 21:42:00,65.7,29.8,29.22,NE,38,3.0,6.0,26,0.00,,,0.00,meteohub,2013-09-06 04:42:00,
2013-09-05 21:47:00,65.7,29.8,29.22,ESE,113,3.0,6.0,26,0.00,,,0.00,meteohub,2013-09-06 04:47:00,
2013-09-05 21:52:00,65.5,29.7,29.22,ENE,69,2.0,6.0,26,0.00,,,0.00,meteohub,2013-09-06 04:52:00,
2013-09-05 21:57:00,65.3,30.4,29.22,WSW,246,4.0,6.0,27,0.00,,,0.00,meteohub,2013-09-06 04:57:00,
2013-09-05 22:02:00,65.1,30.4,29.22,SE,133,3.0,6.0,27,0.00,,,0.00,meteohub,2013-09-06 05:02:00,
2013-09-05 22:07:00,64.9,30.2,29.22,ESE,103,4.0,6.0,27,0.00,,,0.00,meteohub,2013-09-06 05:07:00,
2013-09-05 22:12:00,64.9,30.2,29.22,East,82,0.0,8.0,27,0.00,,,0.00,meteohub,2013-09-06 05:12:00,
2013-09-05 22:17:00,64.8,30.9,29.22,NE,36,3.0,8.0,28,0.00,,,0.00,meteohub,2013-09-06 05:17:00,
2013-09-05 22:22:00,64.6,30.7,29.22,ESE,102,3.0,8.0,28,0.00,,,0.00,meteohub,2013-09-06 05:22:00,
2013-09-05 22:27:00,64.6,30.7,29.22,ENE,64,4.0,9.0,28,0.00,,,0.00,meteohub,2013-09-06 05:27:00,
2013-09-05 22:32:00,64.4,30.6,29.22,WSW,245,0.0,9.0,28,0.00,,,0.00,meteohub,2013-09-06 05:32:00,
2013-09-05 22:37:00,64.2,31.3,29.22,SE,146,3.0,9.0,29,0.00,,,0.00,meteohub,2013-09-06 05:37:00,
2013-09-05 22:42:00,64.0,30.2,29.22,NE,54,3.0,5.0,28,0.00,,,0.00,meteohub,2013-09-06 05:42:00,
2013-09-05 22:47:00,64.0,31.1,29.22,South,182,4.0,5.0,29,0.00,,,0.00,meteohub,2013-09-06 05:47:00,
2013-09-05 22:52:00,64.2,31.3,29.22,ESE,123,0.0,6.0,29,0.00,,,0.00,meteohub,2013-09-06 05:52:00,
2013-09-05 22:57:00,64.2,31.3,29.22,ESE,111,6.0,8.0,29,0.00,,,0.00,meteohub,2013-09-06 05:57:00,
2013-09-05 23:02:00,64.2,31.3,29.22,SE,130,5.0,8.0,29,0.00,,,0.00,meteohub,2013-09-06 06:02:00,
2013-09-05 23:07:00,64.2,31.3,29.22,ESE,104,0.0,8.0,29,0.00,,,0.00,meteohub,2013-09-06 06:07:00,
2013-09-05 23:12:00,64.0,31.1,29.22,East,88,0.0,7.0,29,0.00,,,0.00,meteohub,2013-09-06 06:12:00,
2013-09-05 23:17:00,63.9,31.8,29.22,ESE,112,0.0,8.0,30,0.00,,,0.00,meteohub,2013-09-06 06:17:00,
2013-09-05 23:22:00,63.7,31.6,29.22,East,89,0.0,8.0,30,0.00,,,0.00,meteohub,2013-09-06 06:22:00,
2013-09-05 23:27:00,63.5,31.5,29.22,ESE,109,0.0,8.0,30,0.00,,,0.00,meteohub,2013-09-06 06:27:00,
2013-09-05 23:32:00,63.3,32.2,29.22,East,89,3.0,6.0,31,0.00,,,0.00,meteohub,2013-09-06 06:32:00,
2013-09-05 23:37:00,63.1,32.0,29.22,ENE,78,0.0,6.0,31,0.00,,,0.00,meteohub,2013-09-06 06:37:00,
2013-09-05 23:42:00,63.1,32.7,29.22,SSE,157,3.0,6.0,32,0.00,,,0.00,meteohub,2013-09-06 06:42:00,
2013-09-05 23:47:00,63.1,32.7,29.22,ESE,113,4.0,6.0,32,0.00,,,0.00,meteohub,2013-09-06 06:47:00,
2013-09-05 23:52:00,63.1,32.0,29.22,SE,131,3.0,5.0,31,0.00,,,0.00,meteohub,2013-09-06 06:52:00,
2013-09-05 23:57:00,63.1,32.0,29.22,SE,133,4.0,5.0,31,0.00,,,0.00,meteohub,2013-09-06 06:57:00,